This is the latest recevied weather packets stored in our database for station/object W9PEM-13. If no packets are shown the sender has not sent any weather packets the latest 10 day(s).
| Time | Temp. | Humidity | Pressure | Rain* | Wind** | Luminosity | Snow |
|---|---|---|---|---|---|---|---|
| 1777399487 | 13.33° C | 66% | 982.1 hPa | 0 mm | - | 927 W/m² | - |
| 1777398888 | 13.33° C | 67% | 981.8 hPa | 0 mm | - | 269 W/m² | - |
| 1777398287 | 13.33° C | 65% | 981.8 hPa | 0 mm | - | 824 W/m² | - |
| 1777397687 | 12.78° C | 69% | 981.9 hPa | 0 mm | - | 1018 W/m² | - |
| 1777397088 | 12.78° C | 66% | 981.8 hPa | 0 mm | - | 947 W/m² | - |
| 1777396488 | 12.78° C | 68% | 981.8 hPa | 0 mm | - | 813 W/m² | - |
| 1777395887 | 12.22° C | 70% | 981.8 hPa | 0 mm | - | 761 W/m² | - |
| 1777395287 | 12.22° C | 70% | 981.8 hPa | 0 mm | - | 452 W/m² | - |
| 1777394687 | 12.22° C | 71% | 981.8 hPa | 0 mm | - | 485 W/m² | - |
| 1777394087 | 11.67° C | 72% | 981.4 hPa | 0 mm | - | 920 W/m² | - |
| 1777393488 | 11.67° C | 72% | 981.3 hPa | 0 mm | - | 347 W/m² | - |
| 1777392887 | 12.22° C | 73% | 981.4 hPa | 0 mm | - | 439 W/m² | - |
| 1777392287 | 11.67° C | 72% | 981.2 hPa | 0 mm | - | 954 W/m² | - |
| 1777391688 | 11.67° C | 71% | 981 hPa | 0 mm | - | 970 W/m² | - |
| 1777391087 | 11.11° C | 72% | 980.9 hPa | 0 mm | - | 945 W/m² | - |
| 1777390487 | 11.11° C | 74% | 981 hPa | 0 mm | - | 576 W/m² | - |
| 1777389887 | 11.11° C | 72% | 980.8 hPa | 0 mm | - | 347 W/m² | - |
| 1777389287 | 10.56° C | 75% | 981.1 hPa | 0 mm | - | 347 W/m² | - |
| 1777388687 | 10.56° C | 75% | 980.8 hPa | 0 mm | - | 319 W/m² | - |
| 1777388087 | 10° C | 76% | 980.7 hPa | 0 mm | - | 691 W/m² | - |
| 1777387487 | 10° C | 78% | 980.4 hPa | 0 mm | - | 285 W/m² | - |
| 1777386887 | 10° C | 78% | 980 hPa | 0 mm | - | 306 W/m² | - |
| 1777386287 | 10° C | 80% | 979.9 hPa | 0 mm | - | 344 W/m² | - |
| 1777385687 | 10° C | 78% | 979.7 hPa | 0 mm | - | 324 W/m² | - |
| 1777385087 | 10° C | 79% | 979.7 hPa | 0 mm | - | 238 W/m² | - |
* Rain latest hour (hover to see other rain measurements)
** Current wind speed in m/s (hover to see current wind gust speed)